Location: Zagreb
(45.8000°N, 16.0000°E)
Time: 14:24:24
(UTC+02:00)

Transit 2A Rocket - Pass Details

Date: 16 August 2022
Orbit: 593 x 907 km, 66.7° (Epoch: 25 September)

Event Time Altitude Azimuth Distance (km) Brightness Sun altitude
Rises 19:33:03 0° 247° (WSW) 2,947 9.0 4.1°
Reaches altitude 10° 19:35:45 10° 261° (W) 2,000 8.6 3.7°
Maximum altitude 19:39:23 24° 316° (NW) 1,271 7.2 3.0°
Drops below altitude 10° 19:42:57 10° 11° (N) 1,942 7.2 2.5°
Sets 19:45:32 0° 26° (NNE) 2,841 7.9 2.0°
